Regional Weather Roundup
Issued by NWS Upton, NY

Current Version | Previous Version | Graphics & Text | Print | Product List | Glossary Off
Versions: 1 2 3 4 5 6 7 8 9 10 11 12 13 14 15 16 17 18 19 20 21 22 23 24 25 26 27 28 29 30 31 32 33 34 35 36 37 38 39 40 41 42 43 44 45 46 47 48 49 50

000
ASUS41 KOKX 061108
RWROKX

REGIONAL WEATHER ROUNDUP
NATIONAL WEATHER SERVICE NEW YORK NY
700 AM EDT WED MAY 06 2015

NOTE: "FAIR" INDICATES FEW OR NO CLOUDS BELOW 12,000 FEET WITH NO
SIGNIFICANT WEATHER AND/OR OBSTRUCTIONS TO VISIBILITY.

NYZ071-072-176-178-NJZ106-104-061200-
NEW YORK CITY METRO AREA


CITY           SKY/WX    TMP DP  RH WIND       PRES   REMARKS
CENTRAL PARK   CLOUDY    65  43  44 VRB5      30.28R
LAGUARDIA APRT LGT RAIN  61  49  64 NE7       30.25R
KENNEDY INTL   LGT RAIN  65  43  44 N7        30.24R
NEWARK/LIBERTY LGT RAIN  67  40  37 N12       30.25R
BRNX BOT. GARD   N/A     64  41  42 W3        30.27R
TETERBORO      LGT RAIN  66  41  40 N6        30.24R
$$

NYZ177-179-078>081-061200-
LONG ISLAND NEW YORK

CITY           SKY/WX    TMP DP  RH WIND       PRES   REMARKS
FARMINGDALE    CLOUDY    64  45  49 NE15      30.24R
ISLIP          CLOUDY    62  45  53 NE12      30.22R
SHIRLEY        CLOUDY    59  51  75 VRB5      30.24R
WESTHAMPTON    CLOUDY    58  51  78 NE3       30.25R
MONTAUK POINT    N/A     56  49  77 NE6       30.26R
$$

NYZ052-065-067-061200-
HUDSON VALLEY

CITY           SKY/WX    TMP DP  RH WIND       PRES   REMARKS
WHITE PLAINS   CLOUDY    64  35  34 NE8       30.24R
NEWBURGH       LGT RAIN  61  45  55 NE12      30.29R
MONTGOMERY     LGT RAIN  59  45  59 CALM      30.28R
POUGHKEEPSIE   LGT RAIN  57  50  77 CALM      30.27R
ALBANY         CLOUDY    55  44  66 N3        30.30R
$$

NJZ001-105-106-008-010-013-015-019>022-104-061200-
NEW JERSEY

CITY           SKY/WX    TMP DP  RH WIND       PRES   REMARKS
NEWARK/LIBERTY LGT RAIN  67  40  37 N12       30.25R
TETERBORO      LGT RAIN  66  41  40 N6        30.24R
CALDWELL       LGT RAIN  63  45  51 NE5       30.26R
MORRISTOWN     LGT RAIN  68  41  37 N5        30.25R
SOMERVILLE     CLOUDY    66  45  46 N3        30.22R
SUSSEX         LGT RAIN  58  50  75 NE5       30.29R
ANDOVER          N/A     58  50  75 CALM      30.28R
TRENTON        PTSUNNY   65  46  50 NE7       30.23R
MILLVILLE      PTSUNNY   63  61  93 N3        30.22R FOG
ATLANTIC CITY    N/A     63  61  93 NW5       30.22S FOG
WRIGHTSTOWN    PTSUNNY   64  53  68 NE7       30.20S
TOMS RIVER     CLOUDY    63  57  82 CALM      30.23R
BELMAR         CLOUDY    64  46  52 N8        30.23R
$$

PAZ047>061-062-071-061200-
EASTERN PENNSYLVANIA

CITY           SKY/WX    TMP DP  RH WIND       PRES   REMARKS
PHILADELPHIA   MOSUNNY   68  56  65 NE7       30.22R
ALLENTOWN      RAIN      60  49  66 NE7       30.27R
SCRANTON       LGT RAIN  56  49  77 NE6       30.29S
$$

CTZ002-004>006-009-010-012-RIZ004-006-007-MAZ004-011-015-061200-
SOUTHERN NEW ENGLAND
 IN CT

CITY           SKY/WX    TMP DP  RH WIND       PRES   REMARKS
BRADLEY INTL   CLOUDY    60  37  42 N6        30.28R
HARTFORD       CLOUDY    60  38  43 N8        30.27R
DANBURY        CLOUDY    61  36  39 VRB7      30.28R
WTRBRY/OXFORD  PTSUNNY   61  34  36 NE9       30.29R
BRIDGEPORT     CLOUDY    64  38  38 NE9       30.25R
MERIDEN        CLOUDY    62  36  37 N8        30.27R
NEW HAVEN      CLOUDY    62  38  40 N10       30.25R
CHESTER        DRIZZLE   63  37  39 NE6       30.26R
GROTON         CLOUDY    61  44  53 CALM      30.25R
WILLIMANTIC    CLOUDY    61  38  42 N6        30.26R

 IN RI

CITY           SKY/WX    TMP DP  RH WIND       PRES   REMARKS
PROVIDENCE     CLOUDY    59  42  53 NE9       30.26
BLOCK ISLAND   CLOUDY    54  48  82 NE7       30.25R
WESTERLY       CLOUDY    62  40  44 NE6       30.25R

 IN MA

CITY           SKY/WX    TMP DP  RH WIND       PRES   REMARKS
BOSTON         CLOUDY    59  39  47 N7        30.29R
WORCESTER      CLOUDY    58  28  32 N8        30.29R
WESTFIELD      CLOUDY    53  42  66 N8        30.28R
PROVINCETOWN   PTSUNNY   52  48  87 NE7       30.28R
NANTUCKET      CLOUDY    55  48  77 NE13      30.25R
$$

ANZ330-335-338-340-345-350-353-355-061200-
COASTAL MARINE OBSERVATIONS


STATION/POSITION TIME  SKY/WX   TEMP    WIND        PRES    VSBY  WAVE
                                AIR SEA DIR/SP/G                  HT/PER
                 (UTC)          (F)     (DEG/KT/KT) (MB)    (MI)  (FT/S)
NY HARB ENTRANCE 1050            57 53  340/  6/  6 1023.1          3/ 6
4S FIRE IS       1003               51                N/A           3/ 6
20S FIRE ISLAND  1050            54 49   30/ 14/ 16 1022.7          3/ 6
GREAT SOUTH BAY  1000            60 61   50/  6/  6   N/A
23SW MTP         1050            49 49   30/  8/  8 1023.5          3/ 6
HUDSON CANYON    NOT AVBL
KINGS POINT      1000            59 51   20/  3/  5 1022.3
EASTERN LI SOUND 1000            50     130/  2/  4   N/A
ROBBINS REEF     1000            67     360/  7/  9 1021.9
$$


>>>>>>>>>>>>>>>>>>>>>>>>>>>> KEY <<<<<<<<<<<<<<<<<<<<<<<<<<<
>                                                          <
>     SKY/WX - SKY CONDITION/PRESENT WEATHER               <
>     TMP    - TEMPERATURE IN FAHRENHEIT                   <
>     DP     - DEWPOINT IN FAHRENHEIT                      <
>     RH     - RELATIVE HUMIDITY IN PERCENT                <
>     WIND   - DIRECTION AND SPEED IN MPH                  <
>     PRES   - MEAN SEA LEVEL PRESSURE IN INCHES OF HG     <
>     WCI    - WIND CHILL INDEX                            <
>     VSB    - VISIBILITY IN MILES                         <
>     HX     - HEAT INDEX                                  <
>     TC     - TEMPERATURE IN CELSIUS                      <
>     VRB    - VARIABLE WIND DIRECTION                     <
>                                                          <
>>>>>>>>>>>>>>>>>>>>>>>>>>>> KEY <<<<<<<<<<<<<<<<<<<<<<<<<<<





USA.gov is the U.S. government's official web portal to all federal, state and local government web resources and services.